Location: Hoffnung
(53.7840°N, 9.8743°E)
Time: 07:15:22
(UTC+00:00)

Daily predictions for brighter satellites

Satellite Brightness Start Highest point End
(mag) Time Altitude Azimuth Time Altitude Azimuth Time Altitude Azimuth
Cosmos 371 Rocket 4.2 16:23:16 10° SW 16:27:58 50° WNW 16:32:44 10° NNE
COSMO-SKYMED 1 4.0 16:26:33 10° NE 16:29:40 19° E 16:32:44 10° SE
H-2A R/B 1.9 16:27:50 10° NNE 16:32:03 72° ESE 16:36:09 10° S
H-2A R/B 4.1 16:29:14 10° S 16:32:46 44° W 16:36:21 10° NNW
CORIOLIS 4.1 16:27:58 10° SSE 16:33:18 78° ENE 16:38:43 10° NNW
FengYun 1-2 T 4.3 16:28:53 10° SSE 16:34:28 65° ENE 16:40:03 10° NNW
Cosmos 1110 Rocket 4.4 16:30:30 10° S 16:35:25 42° ESE 16:40:19 10° NE
NOSS 2-2 (C) 4.3 16:30:43 10° NW 16:35:47 84° NE 16:42:52 10° SE
Timation 2 Rocket 4.2 16:31:37 10° NW 16:38:13 84° ENE 16:45:00 10° SE
Lacrosse 5 2.1 16:33:59 10° W 16:39:03 69° NNW 16:44:08 10° ENE
Cosmos 1825 Rocket 3.5 16:34:37 10° N 16:39:07 73° ENE 16:43:32 10° SSE
Cosmos 1486 Rocket 4.4 16:35:53 10° NNW 16:40:59 42° NE 16:46:02 10° SE
ADEOS Rocket 3.2 16:35:41 10° NNE 16:41:59 85° ESE 16:49:00 10° SSW
Meteor 2-21 Rocket 4.5 16:37:36 10° N 16:43:49 70° ENE 16:49:56 10° SSE
Cosmos 292 Rocket 4.4 16:40:23 10° SSE 16:44:42 34° ESE 16:49:05 10° NE
Envisat 3.9 16:39:46 10° S 16:44:46 56° W 16:49:47 10° NNW
Aureole 3 4.2 16:43:19 10° SE 16:45:22 17° E 16:47:23 10° NE
FALCON 9 DEB 3.2 16:42:08 10° W 16:45:34 80° S 16:48:52 11° E
Okean O Rocket 1.9 16:42:25 10° S 16:46:47 72° WSW 16:51:09 10° NNW
ERBS 2.7 16:44:47 10° W 16:48:05 53° N 16:51:09 12° ENE
YAOGAN 1 3.5 16:45:06 10° ESE 16:48:45 27° ENE 16:52:26 10° N
USA 281 3.7 16:43:08 10° SSE 16:49:40 66° WSW 16:56:13 10° NNW
Landsat 5 3.8 16:46:57 10° N 16:50:47 63° WNW 16:54:40 10° SSW
Cosmos 2219 3.2 16:47:45 10° NNW 16:53:33 75° NE 16:59:19 10° SE
CZ-2C R/B 3.8 16:49:54 10° SE 16:55:08 37° ENE 17:00:13 10° N
Feng Yun 1-1 Rocket 4.4 16:49:16 10° SSE 16:55:10 74° ENE 17:01:06 10° NNW
SMAP 3.7 16:51:05 10° S 16:55:42 61° WSW 17:00:21 10° NNW
Cosmos 1758 Rocket 4.2 16:53:30 10° NNW 16:57:52 61° W 17:02:10 10° S
Cosmos 1943 Rocket 3.8 16:53:50 10° W 16:58:38 29° NW 17:03:25 10° NNE
Cosmos 1726 Rocket 3.7 16:54:32 10° SSE 16:58:43 49° E 17:03:00 10° NNE
NOSS 2-1 (E) 4.0 16:56:38 10° WSW 16:59:55 43° NNW 17:03:50 10° NE
USA 307 3.0 16:56:25 10° W 17:00:44 80° SSW 17:04:41 12° ESE
Cosmos 2082 4.0 16:56:36 10° NNW 17:02:09 47° NE 17:07:41 10° ESE
CZ-4B R/B 1.2 17:00:48 10° NNE 17:04:03 62° ESE 17:07:12 10° S
USA 308 3.0 17:01:16 10° W 17:05:33 78° SSW 17:09:20 13° ESE
Cosmos 2228 2.9 17:01:32 10° S 17:05:46 74° E 17:10:04 10° NNE
Cosmos 1939 Rocket 2.7 17:02:38 10° SSE 17:06:34 65° ENE 17:10:27 10° N
Cosmos 2278 Rocket 4.4 17:03:27 10° NW 17:06:34 15° N 17:09:41 10° NNE
ATLAS 5 CENTAUR R/B 2.9 17:04:33 10° W 17:08:40 36° NNW 17:13:25 10° NE
CZ-4 R/B 4.5 17:07:01 10° SSE 17:11:07 60° ENE 17:15:14 10° N
Cosmos 1452 Rocket 4.2 17:06:35 10° SW 17:11:47 57° WNW 17:17:01 10° NNE
Helios 1A Rocket 2.9 17:09:42 10° SSE 17:13:45 58° ENE 17:17:47 10° N
Cosmos 1606 Rocket 3.5 17:09:57 10° S 17:14:19 83° E 17:18:47 10° NNE
FALCON 9 DEB 4.4 17:14:06 10° SSW 17:16:45 24° SSE 17:17:56 19° ESE
GENESIS II 4.3 17:13:00 10° SSW 17:16:59 62° SE 17:20:07 16° NE
SKYMED 2 3.8 17:13:54 10° NNE 17:18:08 47° E 17:22:19 10° S
ARGOS 3.9 17:13:51 10° ESE 17:18:37 33° ENE 17:23:25 10° N
Cosmos 2151 4.4 17:16:13 10° NNE 17:19:13 19° ENE 17:19:28 18° ENE
Cosmos 1689 Rocket 2.5 17:16:43 10° NNE 17:19:28 37° E 17:22:10 10° S
SL-08 R/B 4.4 17:13:46 10° N 17:19:58 66° ENE 17:26:03 10° SSE
Okean-O 2.6 17:15:51 10° SSE 17:20:13 60° ENE 17:24:37 10° N
Cosmos 1745 Rocket 4.1 17:16:57 10° N 17:23:07 54° ENE 17:29:18 10° SSE
Cosmos 1656 4.2 17:18:16 10° S 17:23:21 37° ESE 17:28:31 10° NE
Cosmos 1400 Rocket 2.9 17:22:01 10° S 17:26:02 55° E 17:30:02 10° NNE
PSLV R/B 4.2 17:22:22 10° NNE 17:26:26 46° E 17:30:26 10° S
Cosmos 2227 Rocket 2.2 17:21:48 10° NNW 17:27:31 85° WSW 17:33:11 10° SSE
Cosmos 2058 3.1 17:24:03 10° N 17:28:03 47° ENE 17:32:01 10° SSE
H-2A R/B 2.4 17:22:57 10° SE 17:28:07 46° ENE 17:33:20 10° N
Ariane Rocket 4.2 17:27:38 20° ENE 17:29:00 23° NE 17:32:56 10° N
Cosmos 1892 2.6 17:25:33 10° N 17:29:26 65° ENE 17:33:17 10° SSE
GEOS 3 Rocket 3.7 17:24:33 12° ESE 17:29:35 76° NE 17:35:01 10° NW
CZ-4 R/B 1.2 17:26:41 10° SSE 17:30:31 66° ENE 17:34:21 10° N
Cosmos 2263 Rocket 3.1 17:28:02 10° NNW 17:33:06 31° NE 17:35:33 23° E
Cosmos 1408 2.7 17:30:04 10° N 17:33:37 48° ENE 17:37:11 10° SSE
BREEZE-M R/B 4.2 17:27:29 10° W 17:35:35 48° SSW 17:37:09 24° SE
BREEZE-M DEB (TANK) 4.4 17:31:29 10° WSW 17:35:38 80° S 17:46:14 20° E
CSL-04 Rocket 3.8 17:31:02 10° SE 17:36:25 54° ENE 17:41:47 10° N
NOSS 3-4 (A) 3.9 17:32:53 10° NW 17:39:27 58° NNE 17:44:11 23° ESE
NOSS 3-4 (C) 3.9 17:32:59 10° NW 17:39:33 58° NNE 17:44:16 23° ESE
CZ-4C R/B 3.3 17:34:04 10° NW 17:40:06 42° NNE 17:44:25 22° ENE
Meteor 2-1 Rocket 4.5 17:37:53 10° SSE 17:43:01 41° E 17:48:12 10° NNE
Cosmos 1300 3.3 17:40:40 10° SSW 17:44:26 58° WNW 17:48:14 10° N
Cosmos 2058 Rocket 3.1 17:43:13 10° S 17:47:43 89° WSW 17:52:16 10° NNE
SL-4 R/B 2.0 17:44:18 10° W 17:47:49 59° S 17:49:04 36° SE
Cosmos 1697 Rocket 3.3 17:43:02 10° SSE 17:47:58 33° ESE 17:49:38 27° ENE
Cosmos 1346 Rocket 2.7 17:44:21 10° NNW 17:48:22 80° ENE 17:52:22 10° SSE
Cosmos 1331 Rocket 4.3 17:43:29 10° SW 17:48:37 65° WNW 17:53:46 10° NNE
SeaSat 1 2.5 17:46:27 24° ESE 17:49:23 59° NE 17:54:15 10° NNW
CZ-2D R/B 3.7 17:45:46 10° S 17:49:32 62° WSW 17:53:20 10° NNW
Cosmos 1825 2.3 17:46:55 10° N 17:50:37 49° ENE 17:51:37 38° ESE
USA 305 3.4 17:47:07 10° WNW 17:51:20 54° SSW 17:53:27 27° SE
Cosmos 1709 Rocket 4.1 17:46:39 10° N 17:52:53 52° ENE 17:59:07 10° SSE
USA 215 3.3 17:51:39 26° E 17:55:35 76° NNE 18:02:08 10° WNW
Cosmos 44 3.1 17:51:33 10° SW 17:56:09 90° WNW 17:59:04 24° NE
Cosmos 1315 Rocket 3.4 17:53:27 10° SSE 17:56:19 36° SE 17:56:19 36° SE
SAR-Lupe-4 4.3 17:53:57 10° N 17:57:29 54° WNW 18:00:59 10° SSW
ERS-2 3.9 17:54:10 10° N 17:57:29 33° WNW 18:00:48 10° SW
USA 306 3.5 17:53:32 10° WNW 17:57:42 51° SSW 17:59:35 29° SE
SJ-11-01 4.1 17:54:39 10° SSE 17:59:18 75° ENE 18:04:00 10° NNW
ATLAS 2AS CENTAUR R/B 3.0 17:53:59 10° NW 18:01:39 61° NNE 18:05:17 31° E
BREEZE-M R/B 4.0 17:57:52 10° W 18:01:48 55° S 18:05:18 28° ESE
Cosmos 968 Rocket 4.1 17:57:37 10° NNW 18:02:46 58° WSW 18:07:50 10° S
Cosmos 1340 4.2 17:59:39 10° NNW 18:03:10 37° W 18:06:39 10° SSW
SJ 16-02 3.3 18:02:06 10° N 18:04:08 16° NNE 18:04:08 16° NNE
COSMO-SKYMED 1 2.9 18:01:56 10° N 18:06:16 65° WNW 18:10:33 10° SSW
MOS 1 Rocket 3.4 18:02:28 10° NNE 18:07:00 52° E 18:11:47 10° S
Cosmos 2297 Rocket 3.5 18:01:53 10° NW 18:07:11 41° WSW 18:12:26 10° S
HJ-1C 3.2 18:07:27 78° E 18:07:32 79° ENE 18:10:55 10° NNW
Cosmos 1076 Rocket 3.3 18:04:04 10° N 18:08:21 86° E 18:11:35 17° SSE
COSMOS 2455 4.3 18:04:52 10° NW 18:09:44 24° N 18:12:00 20° NE
Cosmos 2369 Rocket 4.3 18:05:37 10° WNW 18:09:50 21° NNW 18:14:05 10° NNE
Cosmos 1777 Rocket 4.2 18:04:51 10° NNW 18:09:55 48° NE 18:10:50 43° E
Cosmos 1980 Rocket 3.9 18:06:03 10° SSE 18:07:19 16° SSE 18:07:19 16° SSE
Aureole 3 Rocket 4.0 18:09:11 10° SSW 18:13:24 60° WNW 18:19:22 10° N
Cosmos 2315 Rocket 4.1 18:11:00 10° SSE 18:16:52 46° E 18:22:45 10° NNE
CSL-04 Debris 4.3 18:11:25 10° SSE 18:16:52 78° WSW 18:22:24 10° NNW
S3M 3.8 18:11:12 10° S 18:17:20 81° E 18:23:33 10° NNE
Cosmos 1302 Rocket 4.3 18:14:22 10° SW 18:19:36 68° WNW 18:24:55 10° NNE
Cosmos 2227 4.3 18:15:11 10° NNW 18:20:44 53° NE 18:21:43 47° E
Resurs 01 Rocket 3.8 18:24:28 14° NNE 18:24:28 14° NNE 18:25:24 10° N
MetOp-A 4.3 18:22:01 47° ENE 18:22:23 48° ENE 18:27:33 10° N
Lacrosse 5 2.0 18:17:25 10° WNW 18:22:28 63° N 18:23:30 51° ENE
FALCON 9 DEB 3.7 18:19:07 10° W 18:22:07 51° SW 18:22:07 51° SW
FALCON 9 DEB 4.4 18:21:30 10° WSW 18:23:30 32° SW 18:23:30 32° SW
ERBS 3.2 18:21:22 10° WNW 18:24:02 44° NNW 18:24:02 44° NNW
YAOGAN 1 3.6 18:20:31 10° S 18:24:41 45° W 18:28:53 10° NNW
Cosmos 2360 4.4 18:21:16 10° S 18:26:14 46° SE 18:26:14 46° SE
Cosmos 1812 Rocket 4.2 18:27:42 10° S 18:35:45 15° NNE 18:36:30 10° NNE
Cosmos 1455 3.4 18:29:05 10° SSW 18:31:13 32° SSW 18:31:13 32° SSW
Meteor 2-3 Rocket 3.7 18:28:42 10° N 18:34:21 57° ENE 18:34:44 56° E
CZ-2C R/B 4.1 18:29:17 10° S 18:34:53 49° W 18:40:20 10° NNW
DMSP B5D1-3 4.4 18:32:16 10° NNE 18:37:27 89° WNW 18:42:37 10° SSW
USA 307 4.1 18:36:37 10° W 18:40:27 33° SW 18:40:52 32° SSW
Cosmos 1943 Rocket 4.5 18:41:24 10° NW 18:44:18 14° NNW 18:47:13 10° NNE
USA 308 4.2 18:41:28 10° W 18:45:16 31° SW 18:45:31 31° SSW
Meteor 2-10 Rocket 3.9 18:41:14 10° SSW 18:46:27 63° WNW 18:51:32 10° N
Cosmos 2278 Rocket 4.1 18:49:39 10° NNW 18:53:08 16° NNE 18:53:39 16° NNE
SJ-6B 4.5 18:56:20 29° N 18:56:20 29° N 18:58:25 10° NNW
ATLAS 5 CENTAUR R/B 3.3 18:50:20 10° NW 18:54:31 28° N 18:55:00 28° NNE
Cosmos 2151 3.7 18:52:46 10° NNW 18:56:04 49° NW 18:56:04 49° NW
Cosmos 1992 Rocket 4.1 18:53:22 10° SSW 18:58:35 73° WNW 18:59:48 52° N
ARGOS 3.8 18:54:41 18° S 18:58:41 54° W 19:04:02 10° NNW
SL-08 RB Rocket 4.1 19:00:38 61° W 19:00:38 61° W 19:04:56 10° NNW
Cosmos 2369 3.6 18:57:50 10° SSW 19:03:10 78° SSW 19:03:10 78° SSW
CZ-4 R/B 4.3 19:03:40 10° SW 19:05:59 15° W 19:08:19 10° NW
Geosat 4.1 19:06:43 72° W 19:06:43 72° W 19:11:23 10° SW
Cosmos 1844 Rocket 3.8 19:01:16 10° NNW 19:05:18 32° NNE 19:05:18 32° NNE
Cosmos 1656 4.4 19:01:25 10° SW 19:06:53 52° NW 19:10:04 25° NNE
Ariane Rocket 3.1 19:07:51 73° WNW 19:07:51 73° WNW 19:12:37 10° NNW
H-2A R/B 3.5 19:02:39 10° SSW 19:07:39 37° W 19:12:43 10° NNW
Cosmos 2263 Rocket 2.3 19:11:52 10° NW 19:17:16 73° W 19:17:16 73° W
SeaSat 1 3.9 19:26:16 29° SW 19:27:10 31° WSW 19:31:33 10° NW
CZ-4C R/B 2.7 19:22:41 10° NW 19:29:32 82° NE 19:29:35 82° NE
NOSS 3-4 (A) 4.2 19:23:50 10° NW 19:30:33 57° SW 19:31:39 53° SSW
NOSS 3-4 (C) 4.1 19:23:56 10° NW 19:30:39 58° SW 19:31:43 53° SSW
Cosmos 1697 Rocket 3.2 19:26:08 10° SW 19:31:26 58° WNW 19:31:26 58° WNW
Cosmos 2184 Rocket 4.1 19:25:32 10° NNW 19:31:04 70° NNW 19:31:04 70° NNW
USA 215 3.4 19:39:00 62° SW 19:39:00 62° SW 19:45:17 10° WNW
NOSS 3-3 (A) 4.4 19:36:56 10° SW 19:41:47 59° WSW 19:41:47 59° WSW
NOSS 3-3 (C) 4.4 19:37:03 10° SW 19:41:53 59° WSW 19:41:53 59° WSW
SJ 16-02 3.8 19:39:55 10° NNW 19:41:07 18° NNW 19:41:07 18° NNW
Cosmos 2074 Rocket 4.5 19:45:51 10° NNW 19:51:03 56° NW 19:51:03 56° NW
ATLAS 2AS CENTAUR R/B 3.2 19:45:22 10° NW 19:52:40 54° SW 19:52:43 54° SW
COSMOS 2455 4.1 19:51:18 10° NW 19:55:08 34° N 19:55:08 34° N
Resurs 01 Rocket 4.4 20:02:02 14° NNW 20:02:02 14° NNW 20:02:39 10° NNW
Lacrosse 5 3.9 20:00:32 10° WNW 20:02:41 25° WNW 20:02:41 25° WNW
Cosmos 2278 Rocket 4.4 20:33:43 10° NNW 20:35:29 19° NNW 20:35:29 19° NNW
ATLAS 5 CENTAUR R/B 4.4 20:35:15 10° NW 20:36:32 18° NW 20:36:32 18° NW
ATLAS CENTAUR R/B 4.5 20:31:44 10° WNW 20:54:55 81° NNE 20:55:04 81° NNE
CZ-4C R/B 4.5 21:11:25 10° WNW 21:14:47 27° WNW 21:14:47 27° WNW
